����������;��������(kWh)
2019-08-26 00:00;83,7
2019-08-26 00:15;84,4
2019-08-26 00:30;84,2
2019-08-26 00:45;83,65
2019-08-26 01:00;87,6
2019-08-26 01:15;85,2
2019-08-26 01:30;86,65
2019-08-26 01:45;86,35
2019-08-26 02:00;87,35
2019-08-26 02:15;86,4
2019-08-26 02:30;86,25
2019-08-26 02:45;88,1
2019-08-26 03:00;85,55
2019-08-26 03:15;86,95
2019-08-26 03:30;87,1
2019-08-26 03:45;86,85
2019-08-26 04:00;85,75
2019-08-26 04:15;84,2
2019-08-26 04:30;83,45
2019-08-26 04:45;83,5
2019-08-26 05:00;82,45
2019-08-26 05:15;84,85
2019-08-26 05:30;84,3
2019-08-26 05:45;85,05
2019-08-26 06:00;81,65
2019-08-26 06:15;83,55
2019-08-26 06:30;78,15
2019-08-26 06:45;78,6
2019-08-26 07:00;77,25
2019-08-26 07:15;77,35
2019-08-26 07:30;84,5
2019-08-26 07:45;146
2019-08-26 08:00;159,25
2019-08-26 08:15;153,55
2019-08-26 08:30;142,8
2019-08-26 08:45;137,5
2019-08-26 09:00;163,05
2019-08-26 09:15;175,15
2019-08-26 09:30;173,45
2019-08-26 09:45;206,45
2019-08-26 10:00;198,6
2019-08-26 10:15;199
2019-08-26 10:30;226,8
2019-08-26 10:45;214,1
2019-08-26 11:00;230,8
2019-08-26 11:15;244,9
2019-08-26 11:30;229,1
2019-08-26 11:45;238,05
2019-08-26 12:00;246,05
2019-08-26 12:15;237
2019-08-26 12:30;256,8
2019-08-26 12:45;251,25
2019-08-26 13:00;249,7
2019-08-26 13:15;247,5
2019-08-26 13:30;230,85
2019-08-26 13:45;239,7
2019-08-26 14:00;250,55
2019-08-26 14:15;232,1
2019-08-26 14:30;238,35
2019-08-26 14:45;229,1
2019-08-26 15:00;232
2019-08-26 15:15;227,35
2019-08-26 15:30;218,55
2019-08-26 15:45;193,7
2019-08-26 16:00;215,95
2019-08-26 16:15;195,5
2019-08-26 16:30;181,3
2019-08-26 16:45;196,25
2019-08-26 17:00;181,2
2019-08-26 17:15;170,1
2019-08-26 17:30;166,4
2019-08-26 17:45;156,3
2019-08-26 18:00;150
2019-08-26 18:15;148,4
2019-08-26 18:30;144,7
2019-08-26 18:45;140,05
2019-08-26 19:00;140,35
2019-08-26 19:15;137,4
2019-08-26 19:30;136,7
2019-08-26 19:45;134,75
2019-08-26 20:00;130,9
2019-08-26 20:15;128,8
2019-08-26 20:30;127,15
2019-08-26 20:45;129,2
2019-08-26 21:00;125,05
2019-08-26 21:15;126,65
2019-08-26 21:30;125,5
2019-08-26 21:45;117,3
2019-08-26 22:00;115,25
2019-08-26 22:15;97,4
2019-08-26 22:30;93,25
2019-08-26 22:45;95,9
2019-08-26 23:00;99,95
2019-08-26 23:15;95,7
2019-08-26 23:30;94,4
2019-08-26 23:45;101,6
2019-08-27 00:00;87,05
2019-08-27 00:15;89,2
2019-08-27 00:30;90,45
2019-08-27 00:45;88,4
2019-08-27 01:00;87,75
2019-08-27 01:15;86,7
2019-08-27 01:30;85,9
2019-08-27 01:45;87,75
2019-08-27 02:00;87,65
2019-08-27 02:15;85,8
2019-08-27 02:30;86,3
2019-08-27 02:45;85,9
2019-08-27 03:00;86,1
2019-08-27 03:15;85,5
2019-08-27 03:30;84,8
2019-08-27 03:45;81,95
2019-08-27 04:00;84
2019-08-27 04:15;82,6
2019-08-27 04:30;82,65
2019-08-27 04:45;84
2019-08-27 05:00;81,95
2019-08-27 05:15;85,7
2019-08-27 05:30;83,65
2019-08-27 05:45;84,15
2019-08-27 06:00;82,85
2019-08-27 06:15;80,95
2019-08-27 06:30;79,9
2019-08-27 06:45;78,65
2019-08-27 07:00;80,2
2019-08-27 07:15;82,1
2019-08-27 07:30;85,65
2019-08-27 07:45;151,7
2019-08-27 08:00;161,9
2019-08-27 08:15;151,95
2019-08-27 08:30;133,8
2019-08-27 08:45;153,6
2019-08-27 09:00;153,6
2019-08-27 09:15;155,75
2019-08-27 09:30;193,15
2019-08-27 09:45;194,4
2019-08-27 10:00;192,3
2019-08-27 10:15;218
2019-08-27 10:30;207,6
2019-08-27 10:45;219,35
2019-08-27 11:00;237,15
2019-08-27 11:15;227,3
2019-08-27 11:30;231,35
2019-08-27 11:45;234,05
2019-08-27 12:00;242,2
2019-08-27 12:15;242,85
2019-08-27 12:30;236,25
2019-08-27 12:45;236,05
2019-08-27 13:00;247,8
2019-08-27 13:15;238,75
2019-08-27 13:30;237,6
2019-08-27 13:45;249
2019-08-27 14:00;245,8
2019-08-27 14:15;244,35
2019-08-27 14:30;230,15
2019-08-27 14:45;227,6
2019-08-27 15:00;239,5
2019-08-27 15:15;216,75
2019-08-27 15:30;210,95
2019-08-27 15:45;218,2
2019-08-27 16:00;198,6
2019-08-27 16:15;212,15
2019-08-27 16:30;189,05
2019-08-27 16:45;194,3
2019-08-27 17:00;201,6
2019-08-27 17:15;161,1
2019-08-27 17:30;172,75
2019-08-27 17:45;152,05
2019-08-27 18:00;150,45
2019-08-27 18:15;145,2
2019-08-27 18:30;144,25
2019-08-27 18:45;143,45
2019-08-27 19:00;138,25
2019-08-27 19:15;137,5
2019-08-27 19:30;135,95
2019-08-27 19:45;134,6
2019-08-27 20:00;131,35
2019-08-27 20:15;124,45
2019-08-27 20:30;124
2019-08-27 20:45;128
2019-08-27 21:00;125,7
2019-08-27 21:15;124,85
2019-08-27 21:30;122,4
2019-08-27 21:45;120,45
2019-08-27 22:00;108
2019-08-27 22:15;105,3
2019-08-27 22:30;102,85
2019-08-27 22:45;94,75
2019-08-27 23:00;101,55
2019-08-27 23:15;97,3
2019-08-27 23:30;96,3
2019-08-27 23:45;104,95
2019-08-28 00:00;89,15
2019-08-28 00:15;90
2019-08-28 00:30;87,85
2019-08-28 00:45;89,3
2019-08-28 01:00;90,65
2019-08-28 01:15;89,1
2019-08-28 01:30;89,4
2019-08-28 01:45;88,6
2019-08-28 02:00;88,25
2019-08-28 02:15;87,65
2019-08-28 02:30;88,1
2019-08-28 02:45;86,95
2019-08-28 03:00;88,95
2019-08-28 03:15;89,95
2019-08-28 03:30;86,65
2019-08-28 03:45;86,2
2019-08-28 04:00;85,5
2019-08-28 04:15;86,7
2019-08-28 04:30;86,4
2019-08-28 04:45;84,15
2019-08-28 05:00;86,1
2019-08-28 05:15;87
2019-08-28 05:30;86,35
2019-08-28 05:45;88,55
2019-08-28 06:00;83,85
2019-08-28 06:15;84,1
2019-08-28 06:30;82,55
2019-08-28 06:45;80,65
2019-08-28 07:00;83,75
2019-08-28 07:15;82,05
2019-08-28 07:30;86,2
2019-08-28 07:45;155,1
2019-08-28 08:00;161
2019-08-28 08:15;146,8
2019-08-28 08:30;125,6
2019-08-28 08:45;146,15
2019-08-28 09:00;151,35
2019-08-28 09:15;163,7
2019-08-28 09:30;179,2
2019-08-28 09:45;163,95
2019-08-28 10:00;202,95
2019-08-28 10:15;208,25
2019-08-28 10:30;199,2
2019-08-28 10:45;234,9
2019-08-28 11:00;222,8
2019-08-28 11:15;232,45
2019-08-28 11:30;246,55
2019-08-28 11:45;227,7
2019-08-28 12:00;248,7
2019-08-28 12:15;246,4
2019-08-28 12:30;227,55
2019-08-28 12:45;248,9
2019-08-28 13:00;237
2019-08-28 13:15;231,55
2019-08-28 13:30;253,15
2019-08-28 13:45;225
2019-08-28 14:00;227,7
2019-08-28 14:15;244,35
2019-08-28 14:30;217,65
2019-08-28 14:45;218,8
2019-08-28 15:00;227,5
2019-08-28 15:15;199,5
2019-08-28 15:30;211,6
2019-08-28 15:45;207,25
2019-08-28 16:00;185,4
2019-08-28 16:15;203,75
2019-08-28 16:30;185,75
2019-08-28 16:45;178,7
2019-08-28 17:00;196,65
2019-08-28 17:15;158,2
2019-08-28 17:30;161,7
2019-08-28 17:45;151,65
2019-08-28 18:00;150
2019-08-28 18:15;147,2
2019-08-28 18:30;142,35
2019-08-28 18:45;142
2019-08-28 19:00;139,2
2019-08-28 19:15;136,7
2019-08-28 19:30;136,05
2019-08-28 19:45;135,95
2019-08-28 20:00;126,6
2019-08-28 20:15;119,8
2019-08-28 20:30;120,85
2019-08-28 20:45;117,2
2019-08-28 21:00;120,5
2019-08-28 21:15;114,25
2019-08-28 21:30;114,4
2019-08-28 21:45;108,75
2019-08-28 22:00;101,8
2019-08-28 22:15;93,2
2019-08-28 22:30;94,5
2019-08-28 22:45;92,65
2019-08-28 23:00;98,8
2019-08-28 23:15;93,3
2019-08-28 23:30;94,4
2019-08-28 23:45;101,65
2019-08-29 00:00;89,55
2019-08-29 00:15;90,55
2019-08-29 00:30;90,55
2019-08-29 00:45;89,5
2019-08-29 01:00;92,25
2019-08-29 01:15;90,8
2019-08-29 01:30;91,95
2019-08-29 01:45;90,1
2019-08-29 02:00;89,75
2019-08-29 02:15;91,35
2019-08-29 02:30;89,5
2019-08-29 02:45;89,4
2019-08-29 03:00;89,35
2019-08-29 03:15;90,65
2019-08-29 03:30;89,7
2019-08-29 03:45;86,15
2019-08-29 04:00;87,45
2019-08-29 04:15;87,2
2019-08-29 04:30;85,55
2019-08-29 04:45;87,1
2019-08-29 05:00;85,6
2019-08-29 05:15;90,4
2019-08-29 05:30;88,4
2019-08-29 05:45;88
2019-08-29 06:00;84,8
2019-08-29 06:15;84,5
2019-08-29 06:30;82,75
2019-08-29 06:45;83,25
2019-08-29 07:00;82,65
2019-08-29 07:15;81,9
2019-08-29 07:30;85,05
2019-08-29 07:45;142,7
2019-08-29 08:00;158,45
2019-08-29 08:15;119,3
2019-08-29 08:30;107,9
2019-08-29 08:45;135
2019-08-29 09:00;154,2
2019-08-29 09:15;165,2
2019-08-29 09:30;166,7
2019-08-29 09:45;173,85
2019-08-29 10:00;178,2
2019-08-29 10:15;204,15
2019-08-29 10:30;206,8
2019-08-29 10:45;216,75
2019-08-29 11:00;227,65
2019-08-29 11:15;234,45
2019-08-29 11:30;218,4
2019-08-29 11:45;230,6
2019-08-29 12:00;219,7
2019-08-29 12:15;233,1
2019-08-29 12:30;218,9
2019-08-29 12:45;239,65
2019-08-29 13:00;226,35
2019-08-29 13:15;221,1
2019-08-29 13:30;242,75
2019-08-29 13:45;226,7
2019-08-29 14:00;230,95
2019-08-29 14:15;224,1
2019-08-29 14:30;219,45
2019-08-29 14:45;232,85
2019-08-29 15:00;212,85
2019-08-29 15:15;217,2
2019-08-29 15:30;212,35
2019-08-29 15:45;192,5
2019-08-29 16:00;210,05
2019-08-29 16:15;186,9
2019-08-29 16:30;184,25
2019-08-29 16:45;194,8
2019-08-29 17:00;167,45
2019-08-29 17:15;173,7
2019-08-29 17:30;178,3
2019-08-29 17:45;163,75
2019-08-29 18:00;173,95
2019-08-29 18:15;173,25
2019-08-29 18:30;157,15
2019-08-29 18:45;167,25
2019-08-29 19:00;179,8
2019-08-29 19:15;146,2
2019-08-29 19:30;143,3
2019-08-29 19:45;141,4
2019-08-29 20:00;138,35
2019-08-29 20:15;132,9
2019-08-29 20:30;125,95
2019-08-29 20:45;124,45
2019-08-29 21:00;124,4
2019-08-29 21:15;121,85
2019-08-29 21:30;115,2
2019-08-29 21:45;115,55
2019-08-29 22:00;104,2
2019-08-29 22:15;97,3
2019-08-29 22:30;96,3
2019-08-29 22:45;95,05
2019-08-29 23:00;99,85
2019-08-29 23:15;95,65
2019-08-29 23:30;96,35
2019-08-29 23:45;102,05
2019-08-30 00:00;89,1
2019-08-30 00:15;89,3
2019-08-30 00:30;93,6
2019-08-30 00:45;92,95
2019-08-30 01:00;92,75
2019-08-30 01:15;93,95
2019-08-30 01:30;91,55
2019-08-30 01:45;91,3
2019-08-30 02:00;92,6
2019-08-30 02:15;92,75
2019-08-30 02:30;89,9
2019-08-30 02:45;89,1
2019-08-30 03:00;90,1
2019-08-30 03:15;90,5
2019-08-30 03:30;88,8
2019-08-30 03:45;90,6
2019-08-30 04:00;91,15
2019-08-30 04:15;91,05
2019-08-30 04:30;86,65
2019-08-30 04:45;85,55
2019-08-30 05:00;85,95
2019-08-30 05:15;88,65
2019-08-30 05:30;86,9
2019-08-30 05:45;87,8
2019-08-30 06:00;84,5
2019-08-30 06:15;82,3
2019-08-30 06:30;83,6
2019-08-30 06:45;82,2
2019-08-30 07:00;89,6
2019-08-30 07:15;91,45
2019-08-30 07:30;93,9
2019-08-30 07:45;157,3
2019-08-30 08:00;160,85
2019-08-30 08:15;141,05
2019-08-30 08:30;133,85
2019-08-30 08:45;154,25
2019-08-30 09:00;168,2
2019-08-30 09:15;167,95
2019-08-30 09:30;168
2019-08-30 09:45;175,1
2019-08-30 10:00;187,8
2019-08-30 10:15;183,2
2019-08-30 10:30;200,15
2019-08-30 10:45;186,95
2019-08-30 11:00;210,5
2019-08-30 11:15;200,6
2019-08-30 11:30;196,75
2019-08-30 11:45;209,8
2019-08-30 12:00;199,95
2019-08-30 12:15;201,65
2019-08-30 12:30;218,45
2019-08-30 12:45;197,85
2019-08-30 13:00;213,7
2019-08-30 13:15;195,85
2019-08-30 13:30;206,05
2019-08-30 13:45;225,25
2019-08-30 14:00;198,85
2019-08-30 14:15;209,45
2019-08-30 14:30;218,65
2019-08-30 14:45;196,15
2019-08-30 15:00;201,85
2019-08-30 15:15;183,2
2019-08-30 15:30;185,1
2019-08-30 15:45;192,25
2019-08-30 16:00;166,35
2019-08-30 16:15;170,65
2019-08-30 16:30;181,25
2019-08-30 16:45;157,9
2019-08-30 17:00;159,25
2019-08-30 17:15;153,65
2019-08-30 17:30;144,05
2019-08-30 17:45;158,25
2019-08-30 18:00;166,35
2019-08-30 18:15;144,7
2019-08-30 18:30;150,35
2019-08-30 18:45;160,55
2019-08-30 19:00;138,2
2019-08-30 19:15;127,2
2019-08-30 19:30;123,5
2019-08-30 19:45;123,95
2019-08-30 20:00;119,8
2019-08-30 20:15;117,55
2019-08-30 20:30;118,05
2019-08-30 20:45;118,15
2019-08-30 21:00;119,25
2019-08-30 21:15;121
2019-08-30 21:30;116,95
2019-08-30 21:45;105,8
2019-08-30 22:00;94,7
2019-08-30 22:15;86,4
2019-08-30 22:30;86,25
2019-08-30 22:45;85,05
2019-08-30 23:00;93,1
2019-08-30 23:15;87,3
2019-08-30 23:30;88,75
2019-08-30 23:45;96,55
2019-08-31 00:00;89,3
2019-08-31 00:15;86,3
2019-08-31 00:30;84,9
2019-08-31 00:45;85,1
2019-08-31 01:00;85
2019-08-31 01:15;85,2
2019-08-31 01:30;85,1
2019-08-31 01:45;84,55
2019-08-31 02:00;85,9
2019-08-31 02:15;86,7
2019-08-31 02:30;84,85
2019-08-31 02:45;83,4
2019-08-31 03:00;86,2
2019-08-31 03:15;83,85
2019-08-31 03:30;81,35
2019-08-31 03:45;81,3
2019-08-31 04:00;82,75
2019-08-31 04:15;81,5
2019-08-31 04:30;83,75
2019-08-31 04:45;80,95
2019-08-31 05:00;81,25
2019-08-31 05:15;81,9
2019-08-31 05:30;80,55
2019-08-31 05:45;82,6
2019-08-31 06:00;80,35
2019-08-31 06:15;78,15
2019-08-31 06:30;79,25
2019-08-31 06:45;78,8
2019-08-31 07:00;76,7
2019-08-31 07:15;73,45
2019-08-31 07:30;75,15
2019-08-31 07:45;74,3
2019-08-31 08:00;73,9
2019-08-31 08:15;73,75
2019-08-31 08:30;76,45
2019-08-31 08:45;76,35
2019-08-31 09:00;78,4
2019-08-31 09:15;84,6
2019-08-31 09:30;81,9
2019-08-31 09:45;83,65
2019-08-31 10:00;80,2
2019-08-31 10:15;82,8
2019-08-31 10:30;78
2019-08-31 10:45;79,8
2019-08-31 11:00;80,75
2019-08-31 11:15;80,45
2019-08-31 11:30;81,1
2019-08-31 11:45;82,65
2019-08-31 12:00;84,95
2019-08-31 12:15;87,65
2019-08-31 12:30;92,8
2019-08-31 12:45;90,05
2019-08-31 13:00;86,8
2019-08-31 13:15;88,4
2019-08-31 13:30;89,25
2019-08-31 13:45;91,7
2019-08-31 14:00;87,2
2019-08-31 14:15;90,15
2019-08-31 14:30;90,5
2019-08-31 14:45;91,6
2019-08-31 15:00;90
2019-08-31 15:15;88,45
2019-08-31 15:30;88,25
2019-08-31 15:45;91,7
2019-08-31 16:00;90,1
2019-08-31 16:15;87,2
2019-08-31 16:30;86,2
2019-08-31 16:45;88,6
2019-08-31 17:00;88
2019-08-31 17:15;86,1
2019-08-31 17:30;85,25
2019-08-31 17:45;87,4
2019-08-31 18:00;87,85
2019-08-31 18:15;88,6
2019-08-31 18:30;91
2019-08-31 18:45;88,15
2019-08-31 19:00;89,3
2019-08-31 19:15;90,85
2019-08-31 19:30;95,35
2019-08-31 19:45;93,25
2019-08-31 20:00;95
2019-08-31 20:15;99,4
2019-08-31 20:30;99,05
2019-08-31 20:45;99,95
2019-08-31 21:00;101
2019-08-31 21:15;97,9
2019-08-31 21:30;98,7
2019-08-31 21:45;93,45
2019-08-31 22:00;87,1
2019-08-31 22:15;83,55
2019-08-31 22:30;86
2019-08-31 22:45;85,9
2019-08-31 23:00;90,7
2019-08-31 23:15;91
2019-08-31 23:30;91,65
2019-08-31 23:45;95,95
2019-09-01 00:00;86
2019-09-01 00:15;85,3
2019-09-01 00:30;86,7
2019-09-01 00:45;86,55
2019-09-01 01:00;84,6
2019-09-01 01:15;86,15
2019-09-01 01:30;85,25
2019-09-01 01:45;84,1
2019-09-01 02:00;82,65
2019-09-01 02:15;80,45
2019-09-01 02:30;80,75
2019-09-01 02:45;81,5
2019-09-01 03:00;79,8
2019-09-01 03:15;80,9
2019-09-01 03:30;80,7
2019-09-01 03:45;80,35
2019-09-01 04:00;80,35
2019-09-01 04:15;80,15
2019-09-01 04:30;80,55
2019-09-01 04:45;82,1
2019-09-01 05:00;80,65
2019-09-01 05:15;82,05
2019-09-01 05:30;79,8
2019-09-01 05:45;80,25
2019-09-01 06:00;79,1
2019-09-01 06:15;77,6
2019-09-01 06:30;77,7
2019-09-01 06:45;76,55
2019-09-01 07:00;74,3
2019-09-01 07:15;73,8
2019-09-01 07:30;72,75
2019-09-01 07:45;71,85
2019-09-01 08:00;69,1
2019-09-01 08:15;74
2019-09-01 08:30;79,25
2019-09-01 08:45;79,85
2019-09-01 09:00;81,7
2019-09-01 09:15;82,35
2019-09-01 09:30;81,25
2019-09-01 09:45;82,1
2019-09-01 10:00;81
2019-09-01 10:15;79,6
2019-09-01 10:30;80,5
2019-09-01 10:45;82,4
2019-09-01 11:00;81,6
2019-09-01 11:15;79,1
2019-09-01 11:30;83,3
2019-09-01 11:45;79,25
2019-09-01 12:00;83,15
2019-09-01 12:15;82,4
2019-09-01 12:30;79,85
2019-09-01 12:45;82,15
2019-09-01 13:00;84,2
2019-09-01 13:15;81
2019-09-01 13:30;85,2
2019-09-01 13:45;85,2
2019-09-01 14:00;85,25
2019-09-01 14:15;85,05
2019-09-01 14:30;83,5
2019-09-01 14:45;84,4
2019-09-01 15:00;85,65
2019-09-01 15:15;86,1
2019-09-01 15:30;86,3
2019-09-01 15:45;86,4
2019-09-01 16:00;85,45
2019-09-01 16:15;84,8
2019-09-01 16:30;83,55
2019-09-01 16:45;84,8
2019-09-01 17:00;81,5
2019-09-01 17:15;83,6
2019-09-01 17:30;81,85
2019-09-01 17:45;82,9
2019-09-01 18:00;83,5
2019-09-01 18:15;88,8
2019-09-01 18:30;87,1
2019-09-01 18:45;85,6
2019-09-01 19:00;85,65
2019-09-01 19:15;87,7
2019-09-01 19:30;88,75
2019-09-01 19:45;89,2
2019-09-01 20:00;89,3
2019-09-01 20:15;90,1
2019-09-01 20:30;92,8
2019-09-01 20:45;92,3
2019-09-01 21:00;92,5
2019-09-01 21:15;91,4
2019-09-01 21:30;91,6
2019-09-01 21:45;91,3
2019-09-01 22:00;85,1
2019-09-01 22:15;84,45
2019-09-01 22:30;82,4
2019-09-01 22:45;82,65
2019-09-01 23:00;88,4
2019-09-01 23:15;85,05
2019-09-01 23:30;90,55
2019-09-01 23:45;95,6

